Regional Weather Roundup
Issued by NWS

Home | Current Version | Previous Version | Text Only | Print | Product List | Glossary On
Versions: 1 2 3 4 5 6 7 8 9 10 11 12 13 14 15 16 17 18 19 20 21 22 23 24 25 26 27 28 29 30 31 32 33 34 35 36 37 38 39 40 41 42 43 44 45 46 47 48 49 50
000
ASUS45 KREV 071810
RWRNV
NEVADA REGIONAL WEATHER ROUNDUP
NATIONAL WEATHER SERVICE RENO NV
1000 AM PST SUN FEB 07 2016

NOTE: "FAIR" INDICATES FEW OR NO CLOUDS BELOW 12,000 FEET WITH NO
SIGNIFICANT WEATHER AND/OR OBSTRUCTIONS TO VISIBILITY.

NVZ001-003-004-071900-
WESTERN NEVADA

CITY           SKY/WX    TMP DP  RH WIND       PRES   REMARKS
RENO           SUNNY     39  27  62 CALM      30.59R
6HR MIN TEMP:  26; 6HR MAX TEMP:  39;

CARSON CITY    FAIR      37  27  65 CALM      30.58S
MINDEN         FAIR      36  28  75 CALM      30.58F
SLIDE MTN        N/A     34  10  37 E33         N/A
PYRAMID LAKE     N/A     39 N/A N/A E3          N/A
FALLON         SUNNY     36  29  75 CALM      30.61R
6HR MIN TEMP:  24; 6HR MAX TEMP:  36;

LOVELOCK       SUNNY     41  31  67 NE7       30.60R
6HR MIN TEMP:  20; 6HR MAX TEMP:  41;

HAWTHORNE      SUNNY     36  32  87 CALM      30.60R
$$

NVZ002-CAZ072-073-071900-
NORTHERN AND CENTRAL SIERRA

CITY           SKY/WX    TMP DP  RH WIND       PRES   REMARKS
S. LAKE TAHOE  SUNNY     37  26  64 S6        30.52S
6HR MIN TEMP:  20; 6HR MAX TEMP:  37;

TRUCKEE        SUNNY     30  25  80 CALM      30.54S
SQUAW VLY 8000   N/A     36  21  55 SE3         N/A
SUSANVILLE     SUNNY     37  32  81 CALM      30.59R
BLUE CANYON    SUNNY     55  23  28 NE12G30   30.40R
MAMMOTH LAKES  FAIR      45  25  45 W8        30.56S
BRIDGEPORT     FAIR      33  21  61 CALM      30.54F
$$

NVZ030-031-036-071900-
NORTHERN NEVADA

CITY           SKY/WX    TMP DP  RH WIND       PRES   REMARKS
ELKO           MOSUNNY   19  11  70 CALM      30.65R
6HR MIN TEMP:   5; 6HR MAX TEMP:  19;

WINNEMUCCA     SUNNY     35  24  64 NE12      30.61R
6HR MIN TEMP:  25; 6HR MAX TEMP:  35;

WENDOVER       SUNNY     28  21  74 CALM      30.61S
$$

NVZ035-037-071900-
CENTRAL NEVADA

CITY           SKY/WX    TMP DP  RH WIND       PRES   REMARKS
ELY            MOSUNNY   20   9  62 S7        30.57R
6HR MIN TEMP:   4; 6HR MAX TEMP:  20;

EUREKA           N/A      1   1 100 SW8       30.59R
6HR MIN TEMP:   1; 6HR MAX TEMP:   1;

$$

NVZ013-014-071900-
SOUTH CENTRAL NEVADA

CITY           SKY/WX    TMP DP  RH WIND       PRES   REMARKS
TONOPAH        MOSUNNY   28  21  75 E7        30.54R
6HR MIN TEMP:  13; 6HR MAX TEMP:  35;

$$

NVZ017-020-022-071900-
SOUTHERN NEVADA

CITY           SKY/WX    TMP DP  RH WIND       PRES   REMARKS
LAS VEGAS      SUNNY     57  22  25 VRB3      30.38S
6HR MIN TEMP:  40; 6HR MAX TEMP:  57;

N. LAS VEGAS   SUNNY     56  22  26 E5        30.41S
6HR MIN TEMP:  44; 6HR MAX TEMP:  58;

NELLIS AFB     SUNNY     53  27  36 CALM      30.41S
6HR MIN TEMP:  37; 6HR MAX TEMP:  53;

HENDERSON      SUNNY     55  24  30 CALM      30.43S
6HR MIN TEMP:  35; 6HR MAX TEMP:  55;

MERCURY        SUNNY     55  15  20 NE22      30.41S
6HR MIN TEMP:  36; 6HR MAX TEMP:  55;

$$



USA.gov is the U.S. government's official web portal to all federal, state and local government web resources and services.